STARLINK-2627, 48687

Orbit data source: Space-Track

STARLINK-2627, 48687 is a payload satellite owned by SpaceX/Seattle (US) in LEO that was launched on Wed, 26 May 2021 UTC via an FALCON 9 launch vehicle from the Air Force Eastern Test Range (AFETR). Payload-class satellites include a variety of spacecraft equipped with specific instruments for various scientific and technological missions. These include communications satellites like Starlink; space stations such as the ISS; scientific satellites like the Hubble; Earth observation satellites from companies like Planet Labs, Umbra, and HawkEye 360; GPS; miniature CubeSats for education and research; and military/defense satellites.

Loading next visibility...
Identifier
48687, 2021-044BB
Orbit
LEO
Country
Flag of USUS
Related business
Manufacturer
SpaceX/Seattle
Mission
Operational Commercial Communications
Bus & Motor
STARLINK, Unknown motor
Mass
260 kg wet, ~248 kg dry
Launch date (UTC)
2021-05-26 (5 years ago)
Launch vehicle
FALCON 9
Launch site
Air Force Eastern Test Range (AFETR)
Object type
Payload
Rocket body
Debris
Shape & HBR
Box + 1 Pan, 10.1 m
Radar Cross Section
13.562 m², Large (>1 m²)

Expand to show TLE details & history
Last TLE update: 22 hours ago

TLE from 22 hours ago
0 STARLINK-2627
1 48687U 21044BB  25348.69244671 -.00004218  00000-0 -26448-3 0  9999
2 48687  53.0545  88.1862 0001402  93.8587 266.2562 15.06391983251661
Epoch: 2025-12-14T16:37Z
TLE epoch observation values (Epoch: 2025-12-14T16:37:07.395Z)
Latitude
-0.00006°
Longitude
115.30363°
Altitude
548.179 km
Speed
7.589 km/s
True Right ascension
05h 52m 44s
True Declination
0° 00' 00"
Sunlit
Object was in full shadow at epoch
Visualization orbit readout
Latitude
Unknown
Longitude
Unknown
Altitude
Unknown
Speed
Unknown
Apparent Right ascension
Unknown
Apparent Declination
Unknown
Sunlit
N/A
Visualization observer readout
Local Sidereal Time
13:18:58
Azimuth
Unknown
Elevation
Unknown
Doppler factor
Unknown
Orbital elements
Apogee altitude
548.478 km
Perigee altitude
546.536 km
Semi-major axis
6,925.644 km
Eccentricity
0.00014
Inclination
53.0545°
RAAN
88.1862°
Arg. of periapsis
93.8587°
True anomaly
266.24017°
Mean anomaly
266.2562°
Eccentric anomaly
266.24818°
Mean motion
3.76576 °/min
Orbital period
95.6 mins
BSTAR
-0.00026448
Loading maneuver chart data...
Computing Atmospheric mass density...
Loading historical data...
Loading historical data...
Loading historical data...
Loading historical data...
Loading historical data...
Loading historical data...
Loading historical data...

Documentation

Showing up to 5 results
|